map of ACA home
Great Circle Mapper logo
ACA - Airport
Location
City:  Acapulco, Guerrero, México
Name:General Juan N. Álvarez International Airport
ICAO / IATA:MMAA / ACA

Details
Type:Airport (Aerodrome, Airfield)
Use:Public/Civil, International (customs port of entry)
Latitude:16°45'25"N (16.757061)
Longitude:99°45'14"W (-99.753952)
Datum:WGS 1984
Elevation:16 ft (5 m)
Variation:5.31°E (WMM2015 magnetic declination)
-0.11° annual change
Runways:2
Longest:10832 × 148 ft (3302 × 45 m), paved

Time
Time Zone:UTC-6 (DST-5)
Local Time:

Weather
METAR:MMAA 261447Z 00000KT 7SM SCT300 30/24 A2989 RMK SLP121 52015 907 8/002 HZY AC
TAF:MMAA 260511Z 2606/2712 36005KT P6SM SCT020 BKN250 TX33/2621Z TN27/2612Z
FM261700 23010KT P6SM SCT250
FM270300 02005KT P6SM SCT020 BKN300

Related Locations
Nearby:
Farthest:NKW: 11600 mi / 18668 km
Diego Garcia, Chagos Archipelago, IO

Find:

   beyond  
but within

Other Information
Maps:
NOTAMs:
Links:
Sources:

  
flag of México   

Sectional Chart

Flight Planning
at skyvector.com

Satellite Image

Google Maps Satellite View

 

Copyright © 2004-2015 Karl L. Swartz. All rights reserved.
The Great Circle Mapper name and logo are trademarks of the Great Circle Mapper.
All other trademarks mentioned herein belong to their respective owners.
Please see credits for attibutions and further copyright information.

  Follow gcmap on Facebook Follow gcmap on Twitter Follow gcmap on Google+

hCard Microformat

Geo Microformat